TimeICT,TemperatureF,Dew PointF,Humidity,Sea Level PressureIn,VisibilityMPH,Wind Direction,Wind SpeedMPH,Gust SpeedMPH,PrecipitationIn,Events,Conditions,WindDirDegrees,DateUTC
12:00 AM,82.4,73.4,74,29.83,5.6,NNW,3.5,-,N/A,,Unknown,330,2012-12-06 17:00:00
12:30 AM,82.4,75.2,79,29.83,5.6,West,3.5,-,N/A,,Unknown,270,2012-12-06 17:30:00
1:00 AM,82.4,75.2,79,29.83,5.6,West,5.8,-,N/A,,Unknown,270,2012-12-06 18:00:00
6:00 AM,78.8,73.4,83,29.83,6.2,NE,3.5,-,N/A,,Partly Cloudy,50,2012-12-06 23:00:00
7:00 AM,78,75,88,29.88,3,North,2.2,,,,Partly Cloudy,0,2012-12-07 00:00:00
7:00 AM,80.6,73.4,79,29.86,6.2,West,3.5,-,N/A,,Partly Cloudy,270,2012-12-07 00:00:00
7:30 AM,82.4,73.4,74,29.86,6.2,NNW,3.5,-,N/A,,Partly Cloudy,330,2012-12-07 00:30:00
8:00 AM,82.4,73.4,74,29.86,6.2,NNW,3.5,-,N/A,,Partly Cloudy,330,2012-12-07 01:00:00
8:30 AM,84.2,73.4,70,29.89,6.2,NNE,3.5,-,N/A,,Scattered Clouds,30,2012-12-07 01:30:00
9:00 AM,86.0,73.4,66,29.92,6.2,NNE,5.8,-,N/A,,Scattered Clouds,20,2012-12-07 02:00:00
9:30 AM,86.0,73.4,66,29.92,6.2,ENE,8.1,-,N/A,,Partly Cloudy,60,2012-12-07 02:30:00
10:00 AM,87.8,71.6,58,29.89,6.2,NE,8.1,-,N/A,,Partly Cloudy,40,2012-12-07 03:00:00
10:30 AM,87.8,71.6,58,29.89,6.2,North,4.6,-,N/A,,Partly Cloudy,360,2012-12-07 03:30:00
11:00 AM,87.8,71.6,58,29.89,6.2,NE,9.2,-,N/A,,Partly Cloudy,40,2012-12-07 04:00:00
11:30 AM,87.8,69.8,55,29.86,6.2,NE,6.9,-,N/A,,Partly Cloudy,50,2012-12-07 04:30:00
12:00 PM,89.6,71.6,55,29.86,6.2,NE,9.2,-,N/A,,Mostly Cloudy,40,2012-12-07 05:00:00
12:30 PM,86.0,69.8,58,29.83,6.2,NNE,8.1,-,N/A,,Mostly Cloudy,30,2012-12-07 05:30:00
1:00 PM,87.8,71.6,58,29.83,6.2,NNW,8.1,-,N/A,,Mostly Cloudy,340,2012-12-07 06:00:00
1:30 PM,87.8,69.8,55,29.80,6.2,NNW,8.1,-,N/A,,Scattered Clouds,330,2012-12-07 06:30:00
2:00 PM,89.6,71.6,55,29.80,6.2,North,6.9,-,N/A,,Scattered Clouds,360,2012-12-07 07:00:00
2:30 PM,87.8,71.6,58,29.77,6.2,NNW,9.2,-,N/A,,Scattered Clouds,330,2012-12-07 07:30:00
3:00 PM,87.8,69.8,55,29.77,6.2,North,9.2,-,N/A,,Scattered Clouds,360,2012-12-07 08:00:00
3:30 PM,87.8,71.6,58,29.74,6.2,NNE,8.1,-,N/A,,Scattered Clouds,30,2012-12-07 08:30:00
4:00 PM,89.6,69.8,52,29.74,6.2,NNE,6.9,-,N/A,,Scattered Clouds,30,2012-12-07 09:00:00
4:30 PM,89.6,69.8,52,29.74,6.2,NNE,8.1,-,N/A,,Scattered Clouds,30,2012-12-07 09:30:00
5:00 PM,87.8,71.6,58,29.77,6.2,NNE,6.9,-,N/A,,Scattered Clouds,30,2012-12-07 10:00:00
5:30 PM,87.8,71.6,58,29.77,6.2,North,4.6,-,N/A,,Scattered Clouds,360,2012-12-07 10:30:00
6:00 PM,86.0,71.6,62,29.77,6.2,NNW,4.6,-,N/A,,Scattered Clouds,330,2012-12-07 11:00:00
6:30 PM,86.0,73.4,66,29.80,5.6,NNW,5.8,-,N/A,,Scattered Clouds,330,2012-12-07 11:30:00
7:00 PM,84.2,73.4,70,29.80,5.6,NNE,3.5,-,N/A,,Scattered Clouds,30,2012-12-07 12:00:00
7:30 PM,84.2,73.4,70,29.80,5.6,NNW,3.5,-,N/A,,Scattered Clouds,330,2012-12-07 12:30:00
8:00 PM,84.2,75.2,74,29.80,5.6,North,3.5,-,N/A,,Scattered Clouds,360,2012-12-07 13:00:00
8:30 PM,84.2,73.4,70,29.83,5.6,North,3.5,-,N/A,,Scattered Clouds,360,2012-12-07 13:30:00
9:00 PM,84.2,75.2,74,29.83,5.6,North,3.5,-,N/A,,Scattered Clouds,350,2012-12-07 14:00:00
9:30 PM,84.2,75.2,74,29.83,5.6,NW,3.5,-,N/A,,Scattered Clouds,320,2012-12-07 14:30:00
10:00 PM,84.2,75.2,74,29.83,5.6,North,3.5,-,N/A,,Scattered Clouds,360,2012-12-07 15:00:00
11:00 PM,82.4,75.2,79,29.83,5.6,West,6.9,-,N/A,,Scattered Clouds,280,2012-12-07 16:00:00
11:30 PM,80.6,75.2,84,29.83,5.6,WNW,4.6,-,N/A,,Scattered Clouds,300,2012-12-07 16:30:00